Find Starlink 31422

NORAD ID: 59354 Int'l Des: 2024-060 Owner: SPXS Country: US Constellation: starlink operational
LEOCIRCULAR

現在のビュー

3D地球を読み込み中...

About Starlink 31422

Starlink 31422 (NORAD 59354) is a starlink constellation satellite (v2 mini) launched Mar 31, 2024 by SPXS of US. It operates in LEO, CIRCULAR orbit with a mass of 730.00 kg.

次回通過

Passes for default location (London). Set your location on the main map for personalized predictions.

高度履歴

Loading altitude history...

軌道要素

1 59354U 24060G 26264.94943678 -.00000744 00000-0 -17526-4 0 9990
2 59354 43.0018 231.8776 0000895 279.4831 80.5920 15.27573213140076
Epoch: Sep 21, 2026 • Age: 26 hours

現在のステータス

高度 495.8 km
遠地点 / 近地点 N/A
速度 7.62 km/s
衛星直下点 -43.15°S, 116.62°E
打ち上げ日 Mar 31, 2024
運用期間 2.4 years
タイプ internet

技術仕様

分類 Payload
質量 730.00 kg
乾燥質量 700.00 kg
長さ 0.30 m
スパン 29.00 m
形状 ? Box + pan
製造者 SPXS
バスタイプ Starlink V2M
フェーズステータス In Orbit
所有者/国 SPXS/US

Most Searched